| time (UTC) | temp C | wind direction | speed KPH | gust KPH | rain 1hr cm | rain 24hr cm | rain mn cm | humidity % | barometer mb |
| 20260505031538 | 22 | 264 | 1.6 | 8.0 | 0.00 | 0.00 | 0.00 | 60 | 1004.3 |
| 20260505030041 | 22 | 274 | 0.0 | 4.8 | 0.00 | 0.00 | 0.00 | 60 | 1004.2 |
| 20260505024534 | 22 | 265 | 1.6 | 3.2 | 0.00 | 0.00 | 0.00 | 61 | 1004.0 |
| 20260505023036 | 22 | 266 | 0.0 | 1.6 | 0.00 | 0.00 | 0.00 | 60 | 1004.0 |
| 20260505021537 | 23 | 265 | 0.0 | 3.2 | 0.00 | 0.00 | 0.00 | 59 | 1003.6 |
| 20260505020039 | 23 | 0 | 0.0 | 4.8 | 0.00 | 0.00 | 0.00 | 56 | 1003.2 |
| 20260505014537 | 23 | 266 | 0.0 | 8.0 | 0.00 | 0.00 | 0.00 | 55 | 1002.8 |
| 20260505013033 | 23 | 256 | 3.2 | 11.3 | 0.00 | 0.00 | 0.00 | 56 | 1002.7 |
| 20260505011541 | 24 | 259 | 1.6 | 8.0 | 0.00 | 0.00 | 0.00 | 54 | 1002.7 |
| 20260505004534 | 25 | 243 | 4.8 | 14.5 | 0.00 | 0.00 | 0.00 | 52 | 1002.6 |
| 20260505003041 | 25 | 241 | 6.4 | 20.9 | 0.00 | 0.00 | 0.00 | 53 | 1002.5 |
| 20260505001535 | 25 | 238 | 4.8 | 11.3 | 0.00 | 0.00 | 0.00 | 54 | 1002.4 |
| 20260505000044 | 26 | 238 | 4.8 | 14.5 | 0.00 | 0.00 | 0.00 | 51 | 1002.5 |
| 20260504234537 | 26 | 241 | 6.4 | 16.1 | 0.00 | 0.00 | 0.00 | 50 | 1002.5 |
| 20260504233034 | 26 | 255 | 6.4 | 14.5 | 0.00 | 0.00 | 0.00 | 51 | 1002.5 |
| 20260504231542 | 27 | 247 | 4.8 | 17.7 | 0.00 | 0.00 | 0.00 | 50 | 1002.6 |
| 20260504230042 | 27 | 214 | 6.4 | 17.7 | 0.00 | 0.00 | 0.00 | 48 | 1002.8 |
| 20260504224536 | 27 | 218 | 6.4 | 19.3 | 0.00 | 0.00 | 0.00 | 49 | 1002.8 |
| 20260504223038 | 27 | 285 | 8.0 | 22.5 | 0.00 | 0.00 | 0.00 | 49 | 1003.0 |
| 20260504221548 | 27 | 283 | 4.8 | 20.9 | 0.00 | 0.00 | 0.00 | 48 | 1003.0 |
| 20260504220034 | 27 | 265 | 4.8 | 16.1 | 0.00 | 0.00 | 0.00 | 50 | 1003.0 |
| 20260504214539 | 27 | 270 | 9.7 | 24.1 | 0.00 | 0.00 | 0.00 | 49 | 1002.9 |
| 20260504213052 | 27 | 240 | 3.2 | 12.9 | 0.00 | 0.00 | 0.00 | 49 | 1003.0 |
| 20260504211539 | 27 | 281 | 11.3 | 22.5 | 0.00 | 0.00 | 0.00 | 50 | 1002.9 |
| 20260504210034 | 27 | 229 | 6.4 | 24.1 | 0.00 | 0.00 | 0.00 | 50 | 1003.2 |
| 20260504204535 | 27 | 264 | 6.4 | 29.0 | 0.00 | 0.00 | 0.00 | 51 | 1003.2 |
| 20260504203048 | 26 | 213 | 4.8 | 20.9 | 0.00 | 0.00 | 0.00 | 53 | 1003.2 |
| 20260504201538 | 26 | 260 | 6.4 | 19.3 | 0.00 | 0.00 | 0.00 | 54 | 1003.6 |
| 20260504200035 | 26 | 288 | 4.8 | 19.3 | 0.00 | 0.00 | 0.00 | 55 | 1003.9 |
| 20260504194541 | 25 | 138 | 8.0 | 14.5 | 0.00 | 0.00 | 0.00 | 60 | 1004.2 |
| 20260504193036 | 23 | 251 | 3.2 | 12.9 | 0.00 | 0.00 | 0.00 | 61 | 1004.3 |
| 20260504191538 | 23 | 292 | 1.6 | 4.8 | 0.00 | 0.00 | 0.00 | 64 | 1004.5 |
| 20260504190038 | 21 | 236 | 1.6 | 6.4 | 0.00 | 0.00 | 0.00 | 68 | 1004.7 |
| 20260504184538 | 20 | 38 | 3.2 | 12.9 | 0.00 | 0.00 | 0.00 | 68 | 1004.0 |
| 20260504183039 | 20 | 32 | 1.6 | 8.0 | 0.00 | 0.00 | 0.00 | 68 | 1004.6 |
| 20260504181537 | 20 | 0 | 1.6 | 9.7 | 0.00 | 0.00 | 0.00 | 64 | 1005.5 |
| 20260504180040 | 21 | 8 | 0.0 | 6.4 | 0.00 | 0.00 | 0.00 | 62 | 1005.5 |
| 20260504174543 | 21 | 30 | 0.0 | 8.0 | 0.00 | 0.00 | 0.00 | 61 | 1005.5 |
| 20260504173039 | 21 | 58 | 1.6 | 8.0 | 0.00 | 0.00 | 0.00 | 60 | 1005.7 |
| 20260504171538 | 21 | 273 | 3.2 | 6.4 | 0.00 | 0.00 | 0.00 | 62 | 1006.1 |
| 20260504160209 | 18 | 226 | 6.4 | 17.7 | 0.00 | 0.00 | 0.00 | 70 | 1006.6 |
| 20260504081534 | 13 | 0 | 0.0 | 0.0 | 0.00 | 0.00 | 0.00 | 84 | 1008.7 |
| 20260504044534 | 17 | 0 | 0.0 | 0.0 | 0.00 | 0.00 | 0.00 | 69 | 1008.5 |
| 20260504043036 | 17 | 0 | 0.0 | 0.0 | 0.00 | 0.00 | 0.00 | 67 | 1008.6 |
| 20260504041539 | 18 | 0 | 0.0 | 1.6 | 0.00 | 0.00 | 0.00 | 62 | 1009.1 |
| 20260504040058 | 19 | 313 | 1.6 | 4.8 | 0.00 | 0.00 | 0.00 | 60 | 1009.5 |
| 20260504034533 | 20 | 276 | 3.2 | 11.3 | 0.00 | 0.00 | 0.00 | 61 | 1009.4 |
| 20260504033035 | 20 | 0 | 0.0 | 3.2 | 0.00 | 0.00 | 0.00 | 59 | 1008.8 |